Time,TemperatureF,DewpointF,PressureIn,WindDirection,WindDirectionDegrees,WindSpeedMPH,WindSpeedGustMPH,Humidity,HourlyPrecipIn,Conditions,Clouds,dailyrainin,SoftwareType,DateUTC
2013-02-25 00:01:00,36.4,18.6,30.10,NNW,333,1.0,1.0,48,0.00,,,0.00,Wunderground v.1.15,2013-02-25 07:01:00,
2013-02-25 00:06:00,36.3,18.5,30.10,NNW,333,1.0,2.0,48,0.00,,,0.00,Wunderground v.1.15,2013-02-25 07:06:00,
2013-02-25 00:11:00,36.1,18.3,30.11,NNW,333,1.0,1.0,48,0.00,,,0.00,Wunderground v.1.15,2013-02-25 07:11:00,
2013-02-25 00:16:00,36.0,17.7,30.11,NNW,333,1.0,1.0,47,0.00,,,0.00,Wunderground v.1.15,2013-02-25 07:16:00,
2013-02-25 00:21:00,35.9,18.1,30.11,NNW,333,0.0,0.0,48,0.00,,,0.00,Wunderground v.1.15,2013-02-25 07:21:00,
2013-02-25 00:26:00,35.9,17.1,30.11,NNW,333,0.0,1.0,46,0.00,,,0.00,Wunderground v.1.15,2013-02-25 07:26:00,
2013-02-25 00:31:00,35.9,16.6,30.11,NNW,333,0.0,0.0,45,0.00,,,0.00,Wunderground v.1.15,2013-02-25 07:31:00,
2013-02-25 00:36:00,35.9,16.1,30.11,NNW,333,0.0,1.0,44,0.00,,,0.00,Wunderground v.1.15,2013-02-25 07:36:00,
2013-02-25 00:41:00,35.9,16.1,30.11,NNW,333,0.0,0.0,44,0.00,,,0.00,Wunderground v.1.15,2013-02-25 07:41:00,
2013-02-25 00:47:00,36.1,16.3,30.11,NNW,333,1.0,4.0,44,0.00,,,0.00,Wunderground v.1.15,2013-02-25 07:47:00,
2013-02-25 00:53:00,36.4,16.0,30.11,WNW,297,2.0,5.0,43,0.00,,,0.00,Wunderground v.1.15,2013-02-25 07:53:00,
2013-02-25 00:58:00,36.6,17.2,30.12,NNE,20,2.0,5.0,45,0.00,,,0.00,Wunderground v.1.15,2013-02-25 07:58:00,
2013-02-25 01:03:00,36.6,17.7,30.12,NNE,20,1.0,2.0,46,0.00,,,0.00,Wunderground v.1.15,2013-02-25 08:03:00,
2013-02-25 01:08:00,36.6,17.2,30.12,NNE,17,0.0,2.0,45,0.00,,,0.00,Wunderground v.1.15,2013-02-25 08:08:00,
2013-02-25 01:13:00,36.5,17.1,30.12,North,352,1.0,2.0,45,0.00,,,0.00,Wunderground v.1.15,2013-02-25 08:13:00,
2013-02-25 01:18:00,36.4,17.6,30.12,NE,55,1.0,2.0,46,0.00,,,0.00,Wunderground v.1.15,2013-02-25 08:18:00,
2013-02-25 01:23:00,36.3,18.0,30.12,NE,55,1.0,1.0,47,0.00,,,0.00,Wunderground v.1.15,2013-02-25 08:23:00,
2013-02-25 01:29:00,36.2,17.9,30.12,NE,55,0.0,1.0,47,0.00,,,0.00,Wunderground v.1.15,2013-02-25 08:29:00,
2013-02-25 01:34:00,35.9,18.1,30.12,NE,55,1.0,2.0,48,0.00,,,0.00,Wunderground v.1.15,2013-02-25 08:34:00,
2013-02-25 01:39:00,35.6,18.8,30.12,East,100,2.0,5.0,50,0.00,,,0.00,Wunderground v.1.15,2013-02-25 08:39:00,
2013-02-25 01:44:00,35.4,18.6,30.13,East,100,1.0,2.0,50,0.00,,,0.00,Wunderground v.1.15,2013-02-25 08:44:00,
2013-02-25 01:49:00,35.3,19.0,30.13,East,100,0.0,2.0,51,0.00,,,0.00,Wunderground v.1.15,2013-02-25 08:49:00,
2013-02-25 01:54:00,35.2,18.9,30.13,East,100,0.0,0.0,51,0.00,,,0.00,Wunderground v.1.15,2013-02-25 08:54:00,
2013-02-25 01:59:00,34.9,19.0,30.13,East,100,0.0,1.0,52,0.00,,,0.00,Wunderground v.1.15,2013-02-25 08:59:00,
2013-02-25 02:04:00,34.6,19.2,30.13,East,100,0.0,2.0,53,0.00,,,0.00,Wunderground v.1.15,2013-02-25 09:04:00,
2013-02-25 02:10:00,34.5,19.1,30.13,East,100,0.0,0.0,53,0.00,,,0.00,Wunderground v.1.15,2013-02-25 09:10:00,
2013-02-25 02:15:00,34.3,19.4,30.13,East,100,0.0,1.0,54,0.00,,,0.00,Wunderground v.1.15,2013-02-25 09:15:00,
2013-02-25 02:21:00,34.1,19.6,30.14,East,100,0.0,1.0,55,0.00,,,0.00,Wunderground v.1.15,2013-02-25 09:21:00,
2013-02-25 02:26:00,34.0,19.5,30.13,East,100,0.0,1.0,55,0.00,,,0.00,Wunderground v.1.15,2013-02-25 09:26:00,
2013-02-25 02:32:00,33.8,19.7,30.13,East,100,0.0,1.0,56,0.00,,,0.00,Wunderground v.1.15,2013-02-25 09:32:00,
2013-02-25 02:37:00,33.8,19.3,30.13,East,100,0.0,1.0,55,0.00,,,0.00,Wunderground v.1.15,2013-02-25 09:37:00,
2013-02-25 02:42:00,33.8,19.7,30.13,East,100,1.0,1.0,56,0.00,,,0.00,Wunderground v.1.15,2013-02-25 09:42:00,
2013-02-25 02:47:00,33.7,20.1,30.13,East,100,1.0,1.0,57,0.00,,,0.00,Wunderground v.1.15,2013-02-25 09:47:00,
2013-02-25 02:53:00,33.5,19.9,30.13,East,100,1.0,2.0,57,0.00,,,0.00,Wunderground v.1.15,2013-02-25 09:53:00,
2013-02-25 02:59:00,33.3,19.7,30.13,East,100,1.0,2.0,57,0.00,,,0.00,Wunderground v.1.15,2013-02-25 09:59:00,
2013-02-25 03:04:00,33.2,20.0,30.13,East,100,1.0,2.0,58,0.00,,,0.00,Wunderground v.1.15,2013-02-25 10:04:00,
2013-02-25 03:09:00,33.0,19.8,30.13,East,100,1.0,2.0,58,0.00,,,0.00,Wunderground v.1.15,2013-02-25 10:09:00,
2013-02-25 03:14:00,33.0,19.4,30.13,East,100,1.0,1.0,57,0.00,,,0.00,Wunderground v.1.15,2013-02-25 10:14:00,
2013-02-25 03:19:00,32.9,19.3,30.13,East,100,0.0,1.0,57,0.00,,,0.00,Wunderground v.1.15,2013-02-25 10:19:00,
2013-02-25 03:24:00,32.8,19.2,30.13,East,100,0.0,0.0,57,0.00,,,0.00,Wunderground v.1.15,2013-02-25 10:24:00,
2013-02-25 03:29:00,32.8,18.8,30.13,East,100,0.0,1.0,56,0.00,,,0.00,Wunderground v.1.15,2013-02-25 10:29:00,
2013-02-25 03:35:00,32.8,18.8,30.13,East,100,0.0,0.0,56,0.00,,,0.00,Wunderground v.1.15,2013-02-25 10:35:00,
2013-02-25 03:41:00,32.8,19.2,30.13,East,100,0.0,1.0,57,0.00,,,0.00,Wunderground v.1.15,2013-02-25 10:41:00,
2013-02-25 03:46:00,32.8,18.8,30.13,East,100,0.0,1.0,56,0.00,,,0.00,Wunderground v.1.15,2013-02-25 10:46:00,
2013-02-25 03:51:00,32.8,19.2,30.13,East,100,1.0,1.0,57,0.00,,,0.00,Wunderground v.1.15,2013-02-25 10:51:00,
2013-02-25 03:56:00,32.8,19.2,30.13,East,100,1.0,1.0,57,0.00,,,0.00,Wunderground v.1.15,2013-02-25 10:56:00,
2013-02-25 04:01:00,32.6,19.4,30.13,East,100,1.0,2.0,58,0.00,,,0.00,Wunderground v.1.15,2013-02-25 11:01:00,
2013-02-25 04:06:00,32.6,19.0,30.13,South,191,2.0,3.0,57,0.00,,,0.00,Wunderground v.1.15,2013-02-25 11:06:00,
2013-02-25 04:11:00,32.7,18.7,30.13,SSW,193,2.0,3.0,56,0.00,,,0.00,Wunderground v.1.15,2013-02-25 11:11:00,
2013-02-25 04:17:00,32.9,18.5,30.13,SSW,193,2.0,3.0,55,0.00,,,0.00,Wunderground v.1.15,2013-02-25 11:17:00,
2013-02-25 04:22:00,33.1,19.1,30.13,SSW,193,1.0,2.0,56,0.00,,,0.00,Wunderground v.1.15,2013-02-25 11:22:00,
2013-02-25 04:27:00,33.1,19.1,30.14,SSW,193,1.0,2.0,56,0.00,,,0.00,Wunderground v.1.15,2013-02-25 11:27:00,
2013-02-25 04:32:00,33.1,19.1,30.14,SSW,193,1.0,2.0,56,0.00,,,0.00,Wunderground v.1.15,2013-02-25 11:32:00,
2013-02-25 04:37:00,33.0,19.8,30.14,South,191,1.0,3.0,58,0.00,,,0.00,Wunderground v.1.15,2013-02-25 11:37:00,
2013-02-25 04:42:00,32.8,19.6,30.14,South,191,1.0,1.0,58,0.00,,,0.00,Wunderground v.1.15,2013-02-25 11:42:00,
2013-02-25 04:48:00,32.7,19.9,30.14,South,191,0.0,1.0,59,0.00,,,0.00,Wunderground v.1.15,2013-02-25 11:48:00,
2013-02-25 04:54:00,32.4,19.7,30.15,South,191,0.0,0.0,59,0.00,,,0.00,Wunderground v.1.15,2013-02-25 11:54:00,
2013-02-25 04:59:00,32.2,19.9,30.15,South,191,0.0,2.0,60,0.00,,,0.00,Wunderground v.1.15,2013-02-25 11:59:00,
2013-02-25 05:04:00,32.0,19.7,30.15,South,191,1.0,1.0,60,0.00,,,0.00,Wunderground v.1.15,2013-02-25 12:04:00,
2013-02-25 05:10:00,31.8,19.9,30.15,South,191,0.0,0.0,61,0.00,,,0.00,Wunderground v.1.15,2013-02-25 12:10:00,
2013-02-25 05:16:00,31.7,19.8,30.15,South,191,0.0,0.0,61,0.00,,,0.00,Wunderground v.1.15,2013-02-25 12:16:00,
2013-02-25 05:21:00,31.6,20.1,30.15,South,191,0.0,0.0,62,0.00,,,0.00,Wunderground v.1.15,2013-02-25 12:21:00,
2013-02-25 05:26:00,31.4,19.9,30.15,South,191,0.0,2.0,62,0.00,,,0.00,Wunderground v.1.15,2013-02-25 12:26:00,
2013-02-25 05:31:00,31.3,20.2,30.15,South,191,0.0,0.0,63,0.00,,,0.00,Wunderground v.1.15,2013-02-25 12:31:00,
2013-02-25 05:36:00,31.2,20.1,30.15,South,191,0.0,2.0,63,0.00,,,0.00,Wunderground v.1.15,2013-02-25 12:36:00,
2013-02-25 05:42:00,30.9,20.9,30.15,South,191,1.0,2.0,66,0.00,,,0.00,Wunderground v.1.15,2013-02-25 12:42:00,
2013-02-25 05:47:00,30.7,20.7,30.15,South,191,1.0,2.0,66,0.00,,,0.00,Wunderground v.1.15,2013-02-25 12:47:00,
2013-02-25 05:53:00,30.7,20.7,30.16,South,191,0.0,1.0,66,0.00,,,0.00,Wunderground v.1.15,2013-02-25 12:53:00,
2013-02-25 05:59:00,30.5,20.1,30.16,South,191,0.0,1.0,65,0.00,,,0.00,Wunderground v.1.15,2013-02-25 12:59:00,
2013-02-25 06:04:00,30.4,20.4,30.16,South,191,0.0,2.0,66,0.00,,,0.00,Wunderground v.1.15,2013-02-25 13:04:00,
2013-02-25 06:10:00,30.3,20.6,30.16,South,191,0.0,0.0,67,0.00,,,0.00,Wunderground v.1.15,2013-02-25 13:10:00,
2013-02-25 06:15:00,30.2,20.6,30.16,South,191,0.0,0.0,67,0.00,,,0.00,Wunderground v.1.15,2013-02-25 13:15:00,
2013-02-25 06:20:00,30.1,20.5,30.16,South,191,0.0,0.0,67,0.00,,,0.00,Wunderground v.1.15,2013-02-25 13:20:00,
2013-02-25 06:25:00,30.0,20.4,30.16,South,191,0.0,0.0,67,0.00,,,0.00,Wunderground v.1.15,2013-02-25 13:25:00,
2013-02-25 06:30:00,30.0,20.7,30.17,South,191,0.0,1.0,68,0.00,,,0.00,Wunderground v.1.15,2013-02-25 13:30:00,
2013-02-25 06:36:00,29.9,20.6,30.17,SSW,201,1.0,2.0,68,0.00,,,0.00,Wunderground v.1.15,2013-02-25 13:36:00,
2013-02-25 06:41:00,29.8,20.5,30.17,SSW,201,1.0,1.0,68,0.00,,,0.00,Wunderground v.1.15,2013-02-25 13:41:00,
2013-02-25 06:46:00,29.8,20.5,30.17,SSW,201,0.0,2.0,68,0.00,,,0.00,Wunderground v.1.15,2013-02-25 13:46:00,
2013-02-25 06:51:00,29.6,20.7,30.17,SSW,201,0.0,0.0,69,0.00,,,0.00,Wunderground v.1.15,2013-02-25 13:51:00,
2013-02-25 06:57:00,29.5,20.9,30.18,SSW,201,0.0,1.0,70,0.00,,,0.00,Wunderground v.1.15,2013-02-25 13:57:00,
2013-02-25 07:02:00,29.4,20.5,30.18,SSW,201,0.0,0.0,69,0.00,,,0.00,Wunderground v.1.15,2013-02-25 14:02:00,
2013-02-25 07:07:00,29.3,20.7,30.18,SSW,201,0.0,0.0,70,0.00,,,0.00,Wunderground v.1.15,2013-02-25 14:07:00,
2013-02-25 07:15:00,29.3,21.1,30.18,SSW,201,1.0,3.0,71,0.00,,,0.00,Wunderground v.1.15,2013-02-25 14:15:00,
2013-02-25 07:20:00,29.5,20.9,30.18,SSW,201,1.0,1.0,70,0.00,,,0.00,Wunderground v.1.15,2013-02-25 14:20:00,
2013-02-25 07:26:00,29.9,21.3,30.19,SSW,201,0.0,1.0,70,0.00,,,0.00,Wunderground v.1.15,2013-02-25 14:26:00,
2013-02-25 07:32:00,30.8,21.8,30.19,SSW,201,0.0,0.0,69,0.00,,,0.00,Wunderground v.1.15,2013-02-25 14:32:00,
2013-02-25 07:37:00,32.5,22.4,30.19,SSW,201,0.0,0.0,66,0.00,,,0.00,Wunderground v.1.15,2013-02-25 14:37:00,
2013-02-25 07:42:00,34.2,21.7,30.19,SSW,201,0.0,0.0,60,0.00,,,0.00,Wunderground v.1.15,2013-02-25 14:42:00,
2013-02-25 07:47:00,35.5,22.2,30.19,SSW,201,0.0,1.0,58,0.00,,,0.00,Wunderground v.1.15,2013-02-25 14:47:00,
2013-02-25 07:53:00,34.7,21.8,30.20,ESE,104,1.0,2.0,59,0.00,,,0.00,Wunderground v.1.15,2013-02-25 14:53:00,
2013-02-25 07:59:00,35.5,22.6,30.20,ESE,104,1.0,2.0,59,0.00,,,0.00,Wunderground v.1.15,2013-02-25 14:59:00,
2013-02-25 08:04:00,35.3,21.6,30.20,ESE,104,0.0,1.0,57,0.00,,,0.00,Wunderground v.1.15,2013-02-25 15:04:00,
2013-02-25 08:09:00,36.2,22.0,30.20,ESE,104,0.0,1.0,56,0.00,,,0.00,Wunderground v.1.15,2013-02-25 15:09:00,
2013-02-25 08:15:00,36.7,21.6,30.21,ESE,104,0.0,2.0,54,0.00,,,0.00,Wunderground v.1.15,2013-02-25 15:15:00,
2013-02-25 08:20:00,37.2,21.6,30.21,ESE,111,1.0,1.0,53,0.00,,,0.00,Wunderground v.1.15,2013-02-25 15:20:00,
2013-02-25 08:25:00,37.6,21.5,30.20,ESE,115,2.0,2.0,52,0.00,,,0.00,Wunderground v.1.15,2013-02-25 15:25:00,
2013-02-25 08:31:00,38.5,21.5,30.21,ESE,123,2.0,2.0,50,0.00,,,0.00,Wunderground v.1.15,2013-02-25 15:31:00,
2013-02-25 08:37:00,38.4,20.4,30.21,ESE,123,2.0,3.0,48,0.00,,,0.00,Wunderground v.1.15,2013-02-25 15:37:00,
2013-02-25 08:42:00,39.3,20.7,30.21,ESE,123,2.0,3.0,47,0.00,,,0.00,Wunderground v.1.15,2013-02-25 15:42:00,
2013-02-25 08:48:00,39.9,20.3,30.21,ESE,123,1.0,3.0,45,0.00,,,0.00,Wunderground v.1.15,2013-02-25 15:48:00,
2013-02-25 08:54:00,40.6,20.4,30.21,ESE,123,1.0,3.0,44,0.00,,,0.00,Wunderground v.1.15,2013-02-25 15:54:00,
2013-02-25 09:00:00,41.3,20.5,30.21,ESE,123,2.0,3.0,43,0.00,,,0.00,Wunderground v.1.15,2013-02-25 16:00:00,
2013-02-25 09:05:00,41.2,19.8,30.21,ESE,123,2.0,3.0,42,0.00,,,0.00,Wunderground v.1.15,2013-02-25 16:05:00,
2013-02-25 09:10:00,41.8,20.4,30.21,ESE,121,2.0,2.0,42,0.00,,,0.00,Wunderground v.1.15,2013-02-25 16:10:00,
2013-02-25 09:15:00,43.0,20.9,30.21,ESE,121,2.0,2.0,41,0.00,,,0.00,Wunderground v.1.15,2013-02-25 16:15:00,
2013-02-25 09:20:00,43.5,20.7,30.21,ESE,119,2.0,3.0,40,0.00,,,0.00,Wunderground v.1.15,2013-02-25 16:20:00,
2013-02-25 09:25:00,43.0,19.7,30.21,ESE,119,2.0,5.0,39,0.00,,,0.00,Wunderground v.1.15,2013-02-25 16:25:00,
2013-02-25 09:31:00,43.5,20.2,30.21,ESE,118,2.0,3.0,39,0.00,,,0.00,Wunderground v.1.15,2013-02-25 16:31:00,
2013-02-25 09:36:00,44.0,20.0,30.21,ESE,118,2.0,3.0,38,0.00,,,0.00,Wunderground v.1.15,2013-02-25 16:36:00,
2013-02-25 09:41:00,44.2,19.5,30.21,ESE,122,3.0,3.0,37,0.00,,,0.00,Wunderground v.1.15,2013-02-25 16:41:00,
2013-02-25 09:47:00,44.0,17.4,30.21,ESE,122,2.0,4.0,34,0.00,,,0.00,Wunderground v.1.15,2013-02-25 16:47:00,
2013-02-25 09:53:00,44.2,18.9,30.20,ESE,122,1.0,2.0,36,0.00,,,0.00,Wunderground v.1.15,2013-02-25 16:53:00,
2013-02-25 09:59:00,46.1,19.2,30.21,SE,125,1.0,2.0,34,0.00,,,0.00,Wunderground v.1.15,2013-02-25 16:59:00,
2013-02-25 10:04:00,46.5,18.9,30.21,SE,125,1.0,1.0,33,0.00,,,0.00,Wunderground v.1.15,2013-02-25 17:04:00,
2013-02-25 10:09:00,46.1,17.8,30.21,SE,125,0.0,1.0,32,0.00,,,0.00,Wunderground v.1.15,2013-02-25 17:09:00,
2013-02-25 10:14:00,46.6,18.3,30.21,SE,125,0.0,0.0,32,0.00,,,0.00,Wunderground v.1.15,2013-02-25 17:14:00,
2013-02-25 10:20:00,48.0,18.8,30.21,SE,125,0.0,1.0,31,0.00,,,0.00,Wunderground v.1.15,2013-02-25 17:20:00,
2013-02-25 10:25:00,47.4,17.5,30.21,SE,124,1.0,2.0,30,0.00,,,0.00,Wunderground v.1.15,2013-02-25 17:25:00,
2013-02-25 10:30:00,48.4,19.1,30.21,SE,124,1.0,1.0,31,0.00,,,0.00,Wunderground v.1.15,2013-02-25 17:30:00,
2013-02-25 10:36:00,49.4,19.2,30.21,SSE,152,0.0,2.0,30,0.00,,,0.00,Wunderground v.1.15,2013-02-25 17:36:00,
2013-02-25 10:41:00,49.8,18.8,30.21,South,185,1.0,1.0,29,0.00,,,0.00,Wunderground v.1.15,2013-02-25 17:41:00,
2013-02-25 10:46:00,50.7,20.4,30.20,SSW,198,1.0,2.0,30,0.00,,,0.00,Wunderground v.1.15,2013-02-25 17:46:00,
2013-02-25 10:51:00,50.6,18.6,30.20,East,81,1.0,2.0,28,0.00,,,0.00,Wunderground v.1.15,2013-02-25 17:51:00,
2013-02-25 10:56:00,51.0,19.0,30.20,ENE,75,1.0,3.0,28,0.00,,,0.00,Wunderground v.1.15,2013-02-25 17:56:00,
2013-02-25 11:01:00,52.4,18.5,30.20,North,359,1.0,3.0,26,0.00,,,0.00,Wunderground v.1.15,2013-02-25 18:01:00,
2013-02-25 11:06:00,52.5,18.6,30.20,West,264,1.0,3.0,26,0.00,,,0.00,Wunderground v.1.15,2013-02-25 18:06:00,
2013-02-25 11:11:00,52.0,18.1,30.19,West,263,1.0,1.0,26,0.00,,,0.00,Wunderground v.1.15,2013-02-25 18:11:00,
2013-02-25 11:16:00,52.3,17.5,30.19,WNW,291,1.0,5.0,25,0.00,,,0.00,Wunderground v.1.15,2013-02-25 18:16:00,
2013-02-25 11:21:00,53.7,17.7,30.19,North,4,2.0,4.0,24,0.00,,,0.00,Wunderground v.1.15,2013-02-25 18:21:00,
2013-02-25 11:26:00,53.1,16.2,30.19,NNE,19,3.0,4.0,23,0.00,,,0.00,Wunderground v.1.15,2013-02-25 18:26:00,
2013-02-25 11:32:00,54.7,17.6,30.19,NW,318,2.0,5.0,23,0.00,,,0.00,Wunderground v.1.15,2013-02-25 18:32:00,
2013-02-25 11:37:00,54.7,17.6,30.19,NNW,331,3.0,5.0,23,0.00,,,0.00,Wunderground v.1.15,2013-02-25 18:37:00,
2013-02-25 11:42:00,55.1,16.9,30.19,North,352,3.0,4.0,22,0.00,,,0.00,Wunderground v.1.15,2013-02-25 18:42:00,
2013-02-25 11:48:00,55.2,18.0,30.19,WSW,252,2.0,4.0,23,0.00,,,0.00,Wunderground v.1.15,2013-02-25 18:48:00,
2013-02-25 11:53:00,55.8,17.5,30.18,WNW,287,2.0,6.0,22,0.00,,,0.00,Wunderground v.1.15,2013-02-25 18:53:00,
2013-02-25 11:59:00,55.6,18.3,30.18,NNW,337,3.0,6.0,23,0.00,,,0.00,Wunderground v.1.15,2013-02-25 18:59:00,
2013-02-25 12:04:00,55.6,19.3,30.18,NNW,336,2.0,5.0,24,0.00,,,0.00,Wunderground v.1.15,2013-02-25 19:04:00,
2013-02-25 12:10:00,54.3,16.2,30.17,ENE,58,3.0,3.0,22,0.00,,,0.00,Wunderground v.1.15,2013-02-25 19:10:00,
2013-02-25 12:15:00,54.6,18.5,30.17,WNW,303,3.0,4.0,24,0.00,,,0.00,Wunderground v.1.15,2013-02-25 19:15:00,
2013-02-25 12:20:00,55.6,17.3,30.17,NNW,327,2.0,4.0,22,0.00,,,0.00,Wunderground v.1.15,2013-02-25 19:20:00,
2013-02-25 12:25:00,55.3,18.1,30.16,NW,309,3.0,6.0,23,0.00,,,0.00,Wunderground v.1.15,2013-02-25 19:25:00,
2013-02-25 12:30:00,55.6,17.3,30.16,NNE,23,3.0,4.0,22,0.00,,,0.00,Wunderground v.1.15,2013-02-25 19:30:00,
2013-02-25 12:36:00,55.1,16.9,30.16,West,272,2.0,4.0,22,0.00,,,0.00,Wunderground v.1.15,2013-02-25 19:36:00,
2013-02-25 12:42:00,55.7,16.3,30.15,NNW,344,2.0,2.0,21,0.00,,,0.00,Wunderground v.1.15,2013-02-25 19:42:00,
2013-02-25 12:47:00,54.9,15.6,30.15,SSW,209,1.0,2.0,21,0.00,,,0.00,Wunderground v.1.15,2013-02-25 19:47:00,
2013-02-25 12:53:00,55.9,16.5,30.14,NE,35,2.0,4.0,21,0.00,,,0.00,Wunderground v.1.15,2013-02-25 19:53:00,
2013-02-25 12:58:00,56.3,18.9,30.14,WNW,300,3.0,4.0,23,0.00,,,0.00,Wunderground v.1.15,2013-02-25 19:58:00,
2013-02-25 13:04:00,55.9,16.5,30.14,North,358,3.0,5.0,21,0.00,,,0.00,Wunderground v.1.15,2013-02-25 20:04:00,
2013-02-25 13:09:00,55.6,16.2,30.14,NE,51,2.0,5.0,21,0.00,,,0.00,Wunderground v.1.15,2013-02-25 20:09:00,
2013-02-25 13:15:00,56.7,18.2,30.13,WNW,299,2.0,4.0,22,0.00,,,0.00,Wunderground v.1.15,2013-02-25 20:15:00,
2013-02-25 13:20:00,55.7,17.4,30.13,West,268,2.0,2.0,22,0.00,,,0.00,Wunderground v.1.15,2013-02-25 20:20:00,
2013-02-25 13:25:00,57.0,18.5,30.13,West,270,2.0,7.0,22,0.00,,,0.00,Wunderground v.1.15,2013-02-25 20:25:00,
2013-02-25 13:30:00,57.7,18.0,30.12,West,272,2.0,2.0,21,0.00,,,0.00,Wunderground v.1.15,2013-02-25 20:30:00,
2013-02-25 13:35:00,56.8,17.2,30.12,WNW,284,2.0,8.0,21,0.00,,,0.00,Wunderground v.1.15,2013-02-25 20:35:00,
2013-02-25 13:41:00,58.2,19.5,30.12,NNE,17,3.0,4.0,22,0.00,,,0.00,Wunderground v.1.15,2013-02-25 20:41:00,
2013-02-25 13:47:00,57.7,18.0,30.12,North,10,2.0,4.0,21,0.00,,,0.00,Wunderground v.1.15,2013-02-25 20:47:00,
2013-02-25 13:52:00,57.5,16.7,30.12,North,349,3.0,6.0,20,0.00,,,0.00,Wunderground v.1.15,2013-02-25 20:52:00,
2013-02-25 13:57:00,56.8,18.3,30.12,NE,56,3.0,6.0,22,0.00,,,0.00,Wunderground v.1.15,2013-02-25 20:57:00,
2013-02-25 14:02:00,57.1,17.5,30.11,NNE,19,2.0,3.0,21,0.00,,,0.00,Wunderground v.1.15,2013-02-25 21:02:00,
2013-02-25 14:07:00,56.8,17.2,30.11,ENE,69,2.0,3.0,21,0.00,,,0.00,Wunderground v.1.15,2013-02-25 21:07:00,
2013-02-25 14:12:00,57.8,19.1,30.11,North,349,1.0,5.0,22,0.00,,,0.00,Wunderground v.1.15,2013-02-25 21:12:00,
2013-02-25 14:17:00,57.2,18.6,30.11,West,273,1.0,5.0,22,0.00,,,0.00,Wunderground v.1.15,2013-02-25 21:17:00,
2013-02-25 14:22:00,58.5,19.7,30.10,NW,306,2.0,7.0,22,0.00,,,0.00,Wunderground v.1.15,2013-02-25 21:22:00,
2013-02-25 14:28:00,59.3,19.3,30.10,WNW,293,3.0,8.0,21,0.00,,,0.00,Wunderground v.1.15,2013-02-25 21:28:00,
2013-02-25 14:33:00,57.7,16.8,30.10,NW,310,3.0,4.0,20,0.00,,,0.00,Wunderground v.1.15,2013-02-25 21:33:00,
2013-02-25 14:38:00,58.7,17.7,30.10,WSW,256,1.0,4.0,20,0.00,,,0.00,Wunderground v.1.15,2013-02-25 21:38:00,
2013-02-25 14:43:00,57.7,16.8,30.10,WSW,241,2.0,2.0,20,0.00,,,0.00,Wunderground v.1.15,2013-02-25 21:43:00,
2013-02-25 14:48:00,58.4,17.4,30.10,West,264,3.0,9.0,20,0.00,,,0.00,Wunderground v.1.15,2013-02-25 21:48:00,
2013-02-25 14:53:00,59.5,19.5,30.10,NW,308,4.0,7.0,21,0.00,,,0.00,Wunderground v.1.15,2013-02-25 21:53:00,
2013-02-25 14:58:00,59.6,18.4,30.10,WNW,303,3.0,9.0,20,0.00,,,0.00,Wunderground v.1.15,2013-02-25 21:58:00,
2013-02-25 15:04:00,59.0,19.1,30.10,NNW,331,3.0,5.0,21,0.00,,,0.00,Wunderground v.1.15,2013-02-25 22:04:00,
2013-02-25 15:09:00,59.5,20.6,30.10,WNW,303,3.0,5.0,22,0.00,,,0.00,Wunderground v.1.15,2013-02-25 22:09:00,
2013-02-25 15:14:00,59.0,17.9,30.10,NW,312,2.0,5.0,20,0.00,,,0.00,Wunderground v.1.15,2013-02-25 22:14:00,
2013-02-25 15:20:00,58.7,18.8,30.10,NNE,19,2.0,4.0,21,0.00,,,0.00,Wunderground v.1.15,2013-02-25 22:20:00,
2013-02-25 15:25:00,58.5,19.7,30.10,North,10,2.0,4.0,22,0.00,,,0.00,Wunderground v.1.15,2013-02-25 22:25:00,
2013-02-25 15:30:00,59.3,20.4,30.10,NNE,31,2.0,2.0,22,0.00,,,0.00,Wunderground v.1.15,2013-02-25 22:30:00,
2013-02-25 15:35:00,59.4,19.4,30.10,NNW,341,2.0,6.0,21,0.00,,,0.00,Wunderground v.1.15,2013-02-25 22:35:00,
2013-02-25 15:40:00,59.5,19.5,30.10,WNW,290,3.0,3.0,21,0.00,,,0.00,Wunderground v.1.15,2013-02-25 22:40:00,
2013-02-25 15:46:00,57.8,19.1,30.09,NE,43,3.0,4.0,22,0.00,,,0.00,Wunderground v.1.15,2013-02-25 22:46:00,
2013-02-25 15:52:00,58.9,19.0,30.09,NNE,21,2.0,3.0,21,0.00,,,0.00,Wunderground v.1.15,2013-02-25 22:52:00,
2013-02-25 15:57:00,57.8,18.1,30.09,NE,44,3.0,7.0,21,0.00,,,0.00,Wunderground v.1.15,2013-02-25 22:57:00,
2013-02-25 16:02:00,58.3,18.5,30.09,NW,306,2.0,2.0,21,0.00,,,0.00,Wunderground v.1.15,2013-02-25 23:02:00,
2013-02-25 16:07:00,58.0,19.3,30.09,WNW,290,1.0,4.0,22,0.00,,,0.00,Wunderground v.1.15,2013-02-25 23:07:00,
2013-02-25 16:12:00,58.9,21.1,30.09,WNW,297,2.0,5.0,23,0.00,,,0.00,Wunderground v.1.15,2013-02-25 23:12:00,
2013-02-25 16:17:00,59.1,20.2,30.09,NW,308,2.0,5.0,22,0.00,,,0.00,Wunderground v.1.15,2013-02-25 23:17:00,
2013-02-25 16:23:00,58.3,19.6,30.09,NNE,15,3.0,5.0,22,0.00,,,0.00,Wunderground v.1.15,2013-02-25 23:23:00,
2013-02-25 16:28:00,58.6,19.8,30.08,NW,304,3.0,5.0,22,0.00,,,0.00,Wunderground v.1.15,2013-02-25 23:28:00,
2013-02-25 16:34:00,58.5,20.8,30.08,NW,309,3.0,4.0,23,0.00,,,0.00,Wunderground v.1.15,2013-02-25 23:34:00,
2013-02-25 16:39:00,57.9,19.2,30.08,North,4,2.0,4.0,22,0.00,,,0.00,Wunderground v.1.15,2013-02-25 23:39:00,
2013-02-25 16:45:00,57.6,19.0,30.08,North,359,1.0,2.0,22,0.00,,,0.00,Wunderground v.1.15,2013-02-25 23:45:00,
2013-02-25 16:51:00,57.2,18.6,30.08,West,263,1.0,5.0,22,0.00,,,0.00,Wunderground v.1.15,2013-02-25 23:51:00,
2013-02-25 16:56:00,57.5,19.9,30.08,North,354,2.0,6.0,23,0.00,,,0.00,Wunderground v.1.15,2013-02-25 23:56:00,
2013-02-25 17:02:00,57.3,19.8,30.08,North,350,3.0,5.0,23,0.00,,,0.00,Wunderground v.1.15,2013-02-26 00:02:00,
2013-02-25 17:08:00,56.6,19.2,30.08,NW,307,2.0,5.0,23,0.00,,,0.00,Wunderground v.1.15,2013-02-26 00:08:00,
2013-02-25 17:13:00,56.7,19.3,30.08,NW,312,1.0,2.0,23,0.00,,,0.00,Wunderground v.1.15,2013-02-26 00:13:00,
2013-02-25 17:19:00,56.5,19.1,30.08,NNW,348,1.0,5.0,23,0.00,,,0.00,Wunderground v.1.15,2013-02-26 00:19:00,
2013-02-25 17:24:00,56.3,19.9,30.08,West,275,1.0,2.0,24,0.00,,,0.00,Wunderground v.1.15,2013-02-26 00:24:00,
2013-02-25 17:29:00,55.9,19.6,30.07,West,277,1.0,4.0,24,0.00,,,0.00,Wunderground v.1.15,2013-02-26 00:29:00,
2013-02-25 17:34:00,55.6,19.3,30.08,NNE,26,1.0,5.0,24,0.00,,,0.00,Wunderground v.1.15,2013-02-26 00:34:00,
2013-02-25 17:39:00,55.6,20.3,30.07,North,355,1.0,5.0,25,0.00,,,0.00,Wunderground v.1.15,2013-02-26 00:39:00,
2013-02-25 17:44:00,55.3,20.0,30.08,WNW,288,1.0,4.0,25,0.00,,,0.00,Wunderground v.1.15,2013-02-26 00:44:00,
2013-02-25 17:49:00,55.4,20.1,30.08,WNW,291,3.0,5.0,25,0.00,,,0.00,Wunderground v.1.15,2013-02-26 00:49:00,
2013-02-25 17:54:00,55.4,20.1,30.08,WNW,291,2.0,5.0,25,0.00,,,0.00,Wunderground v.1.15,2013-02-26 00:54:00,
2013-02-25 17:59:00,55.2,20.9,30.07,WNW,294,1.0,5.0,26,0.00,,,0.00,Wunderground v.1.15,2013-02-26 00:59:00,
2013-02-25 18:04:00,55.0,19.8,30.07,WNW,293,0.0,4.0,25,0.00,,,0.00,Wunderground v.1.15,2013-02-26 01:04:00,
2013-02-25 18:10:00,54.6,20.4,30.07,NNW,336,0.0,2.0,26,0.00,,,0.00,Wunderground v.1.15,2013-02-26 01:10:00,
2013-02-25 18:15:00,54.2,19.1,30.07,NNW,336,1.0,2.0,25,0.00,,,0.00,Wunderground v.1.15,2013-02-26 01:15:00,
2013-02-25 18:21:00,53.8,19.7,30.07,NNW,339,0.0,0.0,26,0.00,,,0.00,Wunderground v.1.15,2013-02-26 01:21:00,
2013-02-25 18:26:00,53.5,20.3,30.07,NNW,338,0.0,1.0,27,0.00,,,0.00,Wunderground v.1.15,2013-02-26 01:26:00,
2013-02-25 18:32:00,53.2,20.0,30.07,NNW,338,0.0,0.0,27,0.00,,,0.00,Wunderground v.1.15,2013-02-26 01:32:00,
2013-02-25 18:38:00,52.9,20.6,30.07,NNW,338,0.0,0.0,28,0.00,,,0.00,Wunderground v.1.15,2013-02-26 01:38:00,
2013-02-25 18:43:00,52.5,20.3,30.07,NNW,338,0.0,0.0,28,0.00,,,0.00,Wunderground v.1.15,2013-02-26 01:43:00,
2013-02-25 18:49:00,52.1,20.8,30.07,NNW,338,0.0,1.0,29,0.00,,,0.00,Wunderground v.1.15,2013-02-26 01:49:00,
2013-02-25 18:54:00,51.7,21.2,30.07,NNW,338,0.0,0.0,30,0.00,,,0.00,Wunderground v.1.15,2013-02-26 01:54:00,
2013-02-25 18:59:00,51.3,20.9,30.07,NNW,338,0.0,1.0,30,0.00,,,0.00,Wunderground v.1.15,2013-02-26 01:59:00,
2013-02-25 19:04:00,50.9,21.3,30.07,NNW,335,1.0,2.0,31,0.00,,,0.00,Wunderground v.1.15,2013-02-26 02:04:00,
2013-02-25 19:09:00,50.6,21.8,30.07,NNW,335,0.0,2.0,32,0.00,,,0.00,Wunderground v.1.15,2013-02-26 02:09:00,
2013-02-25 19:15:00,50.2,22.2,30.07,NNW,335,0.0,0.0,33,0.00,,,0.00,Wunderground v.1.15,2013-02-26 02:15:00,
2013-02-25 19:21:00,49.8,21.8,30.07,NNW,335,0.0,1.0,33,0.00,,,0.00,Wunderground v.1.15,2013-02-26 02:21:00,
2013-02-25 19:26:00,49.5,21.5,30.07,NNW,335,0.0,1.0,33,0.00,,,0.00,Wunderground v.1.15,2013-02-26 02:26:00,
2013-02-25 19:31:00,49.2,21.3,30.07,NNW,334,0.0,1.0,33,0.00,,,0.00,Wunderground v.1.15,2013-02-26 02:31:00,
2013-02-25 19:36:00,48.9,21.0,30.07,NNW,334,0.0,1.0,33,0.00,,,0.00,Wunderground v.1.15,2013-02-26 02:36:00,
2013-02-25 19:41:00,48.7,20.8,30.07,NNW,333,0.0,0.0,33,0.00,,,0.00,Wunderground v.1.15,2013-02-26 02:41:00,
2013-02-25 19:46:00,48.4,20.6,30.07,NNW,333,0.0,0.0,33,0.00,,,0.00,Wunderground v.1.15,2013-02-26 02:46:00,
2013-02-25 19:51:00,48.2,21.1,30.07,NNW,333,0.0,0.0,34,0.00,,,0.00,Wunderground v.1.15,2013-02-26 02:51:00,
2013-02-25 19:56:00,47.9,20.8,30.07,NNW,333,0.0,1.0,34,0.00,,,0.00,Wunderground v.1.15,2013-02-26 02:56:00,
2013-02-25 20:01:00,47.7,20.7,30.07,NNW,333,0.0,1.0,34,0.00,,,0.00,Wunderground v.1.15,2013-02-26 03:01:00,
2013-02-25 20:06:00,47.4,20.4,30.07,NNW,333,0.0,1.0,34,0.00,,,0.00,Wunderground v.1.15,2013-02-26 03:06:00,
2013-02-25 20:12:00,47.2,20.9,30.06,NNW,333,0.0,2.0,35,0.00,,,0.00,Wunderground v.1.15,2013-02-26 03:12:00,
2013-02-25 20:17:00,47.0,20.7,30.06,NNW,333,0.0,2.0,35,0.00,,,0.00,Wunderground v.1.15,2013-02-26 03:17:00,
2013-02-25 20:22:00,46.8,20.6,30.06,NNW,333,0.0,0.0,35,0.00,,,0.00,Wunderground v.1.15,2013-02-26 03:22:00,
2013-02-25 20:27:00,46.6,20.4,30.06,NNW,333,0.0,0.0,35,0.00,,,0.00,Wunderground v.1.15,2013-02-26 03:27:00,
2013-02-25 20:32:00,46.3,20.8,30.06,NNW,333,0.0,1.0,36,0.00,,,0.00,Wunderground v.1.15,2013-02-26 03:32:00,
2013-02-25 20:37:00,46.1,21.2,30.06,NNW,333,0.0,1.0,37,0.00,,,0.00,Wunderground v.1.15,2013-02-26 03:37:00,
2013-02-25 20:43:00,45.9,21.1,30.06,NNW,333,0.0,0.0,37,0.00,,,0.00,Wunderground v.1.15,2013-02-26 03:43:00,
2013-02-25 20:48:00,45.7,21.5,30.06,NNW,333,0.0,1.0,38,0.00,,,0.00,Wunderground v.1.15,2013-02-26 03:48:00,
2013-02-25 20:53:00,45.3,20.5,30.06,NNW,332,1.0,2.0,37,0.00,,,0.00,Wunderground v.1.15,2013-02-26 03:53:00,
2013-02-25 20:58:00,45.1,20.3,30.05,NNW,331,1.0,2.0,37,0.00,,,0.00,Wunderground v.1.15,2013-02-26 03:58:00,
2013-02-25 21:03:00,45.0,20.3,30.05,NW,326,1.0,2.0,37,0.00,,,0.00,Wunderground v.1.15,2013-02-26 04:03:00,
2013-02-25 21:09:00,44.8,20.1,30.05,NW,323,1.0,2.0,37,0.00,,,0.00,Wunderground v.1.15,2013-02-26 04:09:00,
2013-02-25 21:14:00,44.7,20.0,30.05,NW,322,1.0,1.0,37,0.00,,,0.00,Wunderground v.1.15,2013-02-26 04:14:00,
2013-02-25 21:20:00,44.7,20.0,30.05,NW,320,1.0,1.0,37,0.00,,,0.00,Wunderground v.1.15,2013-02-26 04:20:00,
2013-02-25 21:25:00,44.7,19.3,30.06,NW,320,1.0,1.0,36,0.00,,,0.00,Wunderground v.1.15,2013-02-26 04:25:00,
2013-02-25 21:30:00,44.6,19.3,30.05,NW,320,1.0,1.0,36,0.00,,,0.00,Wunderground v.1.15,2013-02-26 04:30:00,
2013-02-25 21:35:00,44.6,19.9,30.05,NW,320,1.0,1.0,37,0.00,,,0.00,Wunderground v.1.15,2013-02-26 04:35:00,
2013-02-25 21:41:00,44.5,19.8,30.06,NW,320,1.0,1.0,37,0.00,,,0.00,Wunderground v.1.15,2013-02-26 04:41:00,
2013-02-25 21:46:00,44.5,19.8,30.06,NW,320,1.0,2.0,37,0.00,,,0.00,Wunderground v.1.15,2013-02-26 04:46:00,
2013-02-25 21:51:00,44.4,19.7,30.06,NW,320,1.0,1.0,37,0.00,,,0.00,Wunderground v.1.15,2013-02-26 04:51:00,
2013-02-25 21:56:00,44.3,20.3,30.06,NW,320,0.0,1.0,38,0.00,,,0.00,Wunderground v.1.15,2013-02-26 04:56:00,
2013-02-25 22:00:00,44.2,20.2,30.06,NW,320,0.0,1.0,38,0.00,,,0.00,Wunderground v.1.15,2013-02-26 05:00:00,
2013-02-25 22:01:00,44.2,20.2,30.06,NW,320,0.0,1.0,38,0.00,,,0.00,Wunderground v.1.15,2013-02-26 05:01:00,
2013-02-25 22:02:00,44.1,20.7,30.06,NW,320,0.0,1.0,39,0.00,,,0.00,Wunderground v.1.15,2013-02-26 05:02:00,
2013-02-25 22:05:00,44.0,20.6,30.06,NW,320,0.0,1.0,39,0.00,,,0.00,Wunderground v.1.15,2013-02-26 05:05:00,
2013-02-25 22:10:00,43.9,19.9,30.07,NW,320,1.0,2.0,38,0.00,,,0.00,Wunderground v.1.15,2013-02-26 05:10:00,
2013-02-25 22:16:00,43.8,19.8,30.06,NW,320,1.0,2.0,38,0.00,,,0.00,Wunderground v.1.15,2013-02-26 05:16:00,
2013-02-25 22:21:00,43.8,20.4,30.06,NW,320,1.0,1.0,39,0.00,,,0.00,Wunderground v.1.15,2013-02-26 05:21:00,
2013-02-25 22:27:00,43.6,20.8,30.06,NW,320,1.0,1.0,40,0.00,,,0.00,Wunderground v.1.15,2013-02-26 05:27:00,
2013-02-25 22:32:00,43.6,21.4,30.06,NW,320,0.0,1.0,41,0.00,,,0.00,Wunderground v.1.15,2013-02-26 05:32:00,
2013-02-25 22:37:00,43.3,21.7,30.06,NW,320,0.0,1.0,42,0.00,,,0.00,Wunderground v.1.15,2013-02-26 05:37:00,
2013-02-25 22:42:00,43.1,21.0,30.06,NW,320,0.0,0.0,41,0.00,,,0.00,Wunderground v.1.15,2013-02-26 05:42:00,
2013-02-25 22:47:00,42.7,22.3,30.06,NW,320,0.0,0.0,44,0.00,,,0.00,Wunderground v.1.15,2013-02-26 05:47:00,
2013-02-25 22:53:00,42.2,22.4,30.06,NW,320,0.0,0.0,45,0.00,,,0.00,Wunderground v.1.15,2013-02-26 05:53:00,
2013-02-25 22:58:00,42.0,22.2,30.06,NW,320,0.0,0.0,45,0.00,,,0.00,Wunderground v.1.15,2013-02-26 05:58:00,
2013-02-25 23:03:00,41.7,23.9,30.06,NW,320,0.0,0.0,49,0.00,,,0.00,Wunderground v.1.15,2013-02-26 06:03:00,
2013-02-25 23:08:00,41.4,22.1,30.06,NW,320,1.0,2.0,46,0.00,,,0.00,Wunderground v.1.15,2013-02-26 06:08:00,
2013-02-25 23:13:00,41.2,22.0,30.06,NW,320,1.0,2.0,46,0.00,,,0.00,Wunderground v.1.15,2013-02-26 06:13:00,
2013-02-25 23:18:00,41.1,22.4,30.06,NW,320,1.0,2.0,47,0.00,,,0.00,Wunderground v.1.15,2013-02-26 06:18:00,
2013-02-25 23:23:00,41.0,22.3,30.06,NW,320,0.0,1.0,47,0.00,,,0.00,Wunderground v.1.15,2013-02-26 06:23:00,
2013-02-25 23:28:00,40.8,22.1,30.06,NW,320,0.0,1.0,47,0.00,,,0.00,Wunderground v.1.15,2013-02-26 06:28:00,
2013-02-25 23:33:00,40.6,22.4,30.06,NW,320,0.0,0.0,48,0.00,,,0.00,Wunderground v.1.15,2013-02-26 06:33:00,
2013-02-25 23:38:00,40.5,22.3,30.06,NW,320,0.0,0.0,48,0.00,,,0.00,Wunderground v.1.15,2013-02-26 06:38:00,
2013-02-25 23:44:00,40.4,22.2,30.05,NW,320,0.0,0.0,48,0.00,,,0.00,Wunderground v.1.15,2013-02-26 06:44:00,
2013-02-25 23:49:00,40.0,23.3,30.05,NW,320,0.0,2.0,51,0.00,,,0.00,Wunderground v.1.15,2013-02-26 06:49:00,
2013-02-25 23:54:00,39.6,23.4,30.06,NW,320,1.0,1.0,52,0.00,,,0.00,Wunderground v.1.15,2013-02-26 06:54:00,
2013-02-25 23:59:00,39.4,23.2,30.06,NW,320,0.0,1.0,52,0.00,,,0.00,Wunderground v.1.15,2013-02-26 06:59:00,